Regional Weather Roundup
Issued by NWS Sterling, VA

Home | Current Version | Previous Version | Text Only | Print | Product List | Glossary On
Versions: 1 2 3 4 5 6 7 8 9 10 11 12 13 14 15 16 17 18 19 20 21 22 23 24 25 26 27 28 29 30 31 32 33 34 35 36 37 38 39 40 41 42 43 44 45 46 47 48 49 50
000
ASUS41 KLWX 061210
RWRLWX

REGIONAL WEATHER ROUNDUP
NATIONAL WEATHER SERVICE BALTIMORE MD/WASHINGTON DC
800 AM EDT WED MAY 06 2015

Note: "FAIR" indicates few or no clouds below 12,000 feet
with no significant weather and/or obstructions to visibility.
 TC=TEMPERATURE CELSIUS

 * =Non NWS site. Station does not report precipitation (e.g. rain,
    snow, etc.), thunder, or fog.

DCZ001-MDZ009-015-VAZ040>042-051-053>054-061300-
WASHINGTON METRO

CITY           SKY/WX    TMP DP  RH WIND       PRES   REMARKS
WASHINGTON NAT MOSUNNY   67  63  87 CALM      30.23R
DULLES         MOSUNNY   64  61  90 CALM      30.22R FOG
ANDREWS AFB    SUNNY     64  64 100 CALM      30.22R
FT BELVOIR     MOSUNNY   63  62  98 CALM      30.22R
QUANTICO       MOSUNNY   65  62  90 S6        30.23R
COLLEGE PARK*  SUNNY     63  63 100 CALM      30.22R
LEESBURG*      SUNNY     64  64 100 CALM      30.24R
MANASSAS*      SUNNY     63  61  94 CALM      30.22R
GAITHERSBURG*  SUNNY     63  61  94 CALM      30.27R

$$

MDZ006>007-011-014-061300-
BALTIMORE METRO

CITY           SKY/WX    TMP DP  RH WIND       PRES   REMARKS
BWI AIRPORT    MOSUNNY   66  61  84 CALM      30.22R
MD SCIENCE CTR   N/A     68  61  78 MISG      30.23R
MARTIN STATE   MOSUNNY   64  64 100 SE3       30.24R
ANNAPOLIS      SUNNY     64  61  90 E6        30.22R
FORT MEADE*    SUNNY     61  61 100 CALM      30.25R

$$

MDZ012-015-019>023-061300-
MARYLAND EASTERN SHORE

CITY           SKY/WX    TMP DP  RH WIND       PRES   REMARKS
OCEAN CITY     MOSUNNY   67  54  63 SW7       30.24R
SALISBURY      MOSUNNY   64  57  78 CALM      30.23R
BAY BRIDGE AP*   N/A    N/A N/A N/A SE5       30.23R
CAMBRIDGE*     SUNNY     64  61  88 CALM      30.22S
EASTON*        PTSUNNY   64  64 100 CALM      30.26R

$$

MDZ017>025-061300-
SOUTHERN MARYLAND

CITY           SKY/WX    TMP DP  RH WIND       PRES   REMARKS
PATUXENT RIVER PTSUNNY   64  57  78 CALM      30.22R
ST INIGOES     MOSUNNY   66  55  67 W5        30.22R
LEONARDTOWN*   MOSUNNY   63  57  82 CALM      30.24R

$$

MDZ003>005-061300-
NORTH CENTRAL MARYLAND

CITY           SKY/WX    TMP DP  RH WIND       PRES   REMARKS
FREDERICK*     SUNNY     63  57  82 N3        30.26R FOG
HAGERSTOWN APT SUNNY     66  59  78 N3        30.24R
WESTMINSTER*   SUNNY     64  61  88 CALM      30.24R

$$

MDZ501>502-061300-
WESTERN MARYLAND

CITY           SKY/WX    TMP DP  RH WIND       PRES   REMARKS
OAKLAND*       SUNNY     63  57  82 SW5       30.30S
CUMBERLAND*    MOSUNNY   59  59 100 CALM      30.29R

$$

VAZ025>031-061300-
SHENANDOAH VALLEY

CITY           SKY/WX    TMP DP  RH WIND       PRES   REMARKS
WINCHESTER*    SUNNY     63  59  88 CALM      30.24R
FRONT ROYAL*   FAIR      63  59  88 CALM      30.23R
LURAY*         FAIR      61  61 100 CALM      30.24S
NEW MARKET*    FAIR      56  56 100 CALM      30.25R
STAUNTON*      SUNNY     60  57  91 CALM      30.27R FOG
WAYNESBORO*    FAIR      61  58  91 CALM      30.26R

$$

WVZ021-048>050-054>055-061300-
EASTERN WEST VIRGINIA PANHANDLE

CITY           SKY/WX    TMP DP  RH WIND       PRES   REMARKS
MARTINSBURG    SUNNY     62  59  90 CALM      30.24R FOG
PETERSBURG*    FOG       53  51  90 CALM      30.27S VSB 1/2

$$

VAZ036>039-050-061300-
CENTRAL FOOTHILLS

CITY           SKY/WX    TMP DP  RH WIND       PRES   REMARKS
CHARLOTTESVILL SUNNY     64  61  90 CALM      30.22R
CULPEPER*      CLOUDY    59  59 100 CALM      30.22S FOG
ORANGE*        SUNNY     63  61  94 CALM      30.23R
GORDONSVILLE*  PTSUNNY   63  61  95 S3        30.21R
WARRENTON*     FAIR      63  63 100 CALM      30.22R

$$

VAZ055>057-061300-
NORTH AND CENTRAL PIEDMONT

CITY           SKY/WX    TMP DP  RH WIND       PRES   REMARKS
FREDERICKSBRG* MOSUNNY   64  64 100 CALM      30.22R
STAFFORD*      MOSUNNY   62  50  66 CALM      30.26R FOG

$$

NCZ024-NYZ072-PAZ021-071-VAZ022-071-061300-
OTHER REGIONAL OBSERVATIONS

CITY           SKY/WX    TMP DP  RH WIND       PRES   REMARKS
NEW YORK CITY  CLOUDY    66  40  38 NE13G22   30.30R
PHILADELPHIA   PTSUNNY   69  54  58 E6        30.25R
PITTSBURGH     PTSUNNY   60  59  96 NE5       30.24R FOG
ROANOKE        CLOUDY    62  56  80 CALM      30.27R
RICHMOND       PTSUNNY   65  56  72 S6        30.23R
RALEIGH        MOSUNNY   61  56  83 CALM      30.26S

$$

ANZ530>537-061300-
MARINE OBSERVATIONS

STATION/POSITION TIME  TEMP    WIND        PRES
                       AIR SEA DIR/SP/G
                 (UTC) (F)     (DEG/KT/KT) (MB)
THOMAS PT LIGHT  1200   63 59  160/  4/  4 1024.1R
BALT KEY BRIDGE  1100   65      CALM  /  1 1022.8R
COVE POINT       1100   62     200/  2/  3 1023.8R
LEWISETTA        1100   66 66              1022.9R
SOLOMONS ISLAND  1100      61                N/A
PINEY POINT      1100          260/  3/  4   N/A

$$




USA.gov is the U.S. government's official web portal to all federal, state and local government web resources and services.